441  
NZUS93 KARX 230459  
HRRWXR  
 
CURRENT HOURLY OBSERVATIONS ACROSS  
MUCH OF THE UPPER MISSISSIPPI VALLEY  
NATIONAL WEATHER SERVICE LA CROSSE WI  
1100 PM CST FRI FEB 22 2019  
 
   
..SOUTHEAST MINNESOTA
 
 
 
CITY SKY/WX TMP DP RH WIND PRES REMARKS  
ROCHESTER CLOUDY 28 20 71 E9 30.17F WCI 19  
ROCHESTER/MAYO CLOUDY 30 19 63 E9 30.16F WCI 21  
WINONA CLOUDY 32 21 64 SE7 30.22F WCI 26  
AUSTIN MOCLDY 32 18 55 SE13 30.15S WCI 22  
ALBERT LEA CLOUDY 28 21 74 SE9 30.15F WCI 20  
DODGE CENTER FAIR 27 19 74 E10 30.15F WCI 17  
PRESTON FAIR 29 19 64 E8 30.17F WCI 21  
OWATONNA CLOUDY 28 19 69 E12 30.14F WCI 18  
FARIBAULT NOT AVBL  

 
   
..ELSEWHERE IN MINNESOTA
 
 
 
CITY SKY/WX TMP DP RH WIND PRES REMARKS  
MINNEAPOLIS CLOUDY 26 17 68 E9 30.19F WCI 17  
INTNL FALLS LGT SNOW 17 15 92 CALM 30.24S FOG  
DULUTH CLOUDY 24 16 71 E7 30.22F WCI 16  
RED WING CLOUDY 28 16 59 E6 30.21F WCI 22  
REDWOOD FALLS CLOUDY 24 18 77 E10 30.11F WCI 14  
MANKATO FLURRIES 27 21 78 E12 30.13F WCI 17  
WORTHINGTON LGT SNOW 22 20 92 E7 30.08F FOG WCI 13  
FAIRMONT CLOUDY 26 21 81 E12 30.09F WCI 16  

 
   
..SOUTHWEST WISCONSIN
 
 
 
CITY SKY/WX TMP DP RH WIND PRES REMARKS  
LA CROSSE CLOUDY 33 19 56 E6 30.22F WCI 28  
PRAIRIE DU CHI CLOUDY 33 20 58 E7 30.19F WCI 27  
BOSCOBEL CLOUDY 32 20 61 E6 30.23F WCI 26  
LONE ROCK CLOUDY 31 22 69 E9 30.24F WCI 23  
PLATTEVILLE CLOUDY 32 27 81 E16 30.18F WCI 21  
FORT MC COY CLOUDY 31 19 61 CALM 30.24F  
CAMP DOUGLAS FAIR 29 18 62 E8 30.22F WCI 21  
MAUSTON-NEW LI CLOUDY 30 19 61 E6 30.21F WCI 24  
VIROQUA CLOUDY 30 21 68 E6 30.20F WCI 24  
WIS DELLS CLOUDY 28 19 68 E7 30.22F WCI 21  

 
   
..ELSEWHERE IN WISCONSIN
 
 
 
CITY SKY/WX TMP DP RH WIND PRES REMARKS  
MILWAUKEE CLOUDY 33 27 78 NE12 30.30F HAZE WCI 24  
MADISON CLOUDY 31 23 72 E13 30.23F WCI 21  
GREEN BAY CLOUDY 27 18 69 NE6 30.33F WCI 20  
EAU CLAIRE NOT AVBL  
BLACK RVR FLS CLOUDY 31 17 57 NE7 30.23F WCI 24  
MEDFORD LGT SNOW 25 16 69 E7 30.24F WCI 17  
WAUSAU NOT AVBL  
WIS RAPIDS CLOUDY 29 14 53 E8 30.26F WCI 21  
MARSHFIELD CLOUDY 27 17 66 NE9 30.23F WCI 18  
RICE LAKE CLOUDY 28 17 63 E9 30.25F WCI 19  

 
   
..NORTHEAST IOWA
 
 
 
CITY SKY/WX TMP DP RH WIND PRES REMARKS  
WATERLOO FRZ RAIN 32 27 81 E13 30.13F WCI 22  
DUBUQUE CLOUDY 32 24 72 E12 30.16F WCI 23  
DECORAH CLOUDY 30 21 69 E7G14 30.17F WCI 23  
MASON CITY LGT SNOW 27 24 89 E18 30.11F VSB 1 WCI 14  
CHARLES CITY CLOUDY 30 23 74 E12 30.16F WCI 21  
OELWEIN CLOUDY 32 28 86 E15 30.14F FOG WCI 22  

 
   
..ELSEWHERE IN IOWA
 
 
 
CITY SKY/WX TMP DP RH WIND PRES REMARKS  
DES MOINES FRZ DRZL 31 28 89 E12 30.03F FOG WCI 22  
IOWA CITY CLOUDY 35 29 78 E7 30.14F WCI 29  
FORT DODGE FLURRIES 29 25 85 E15 30.05F WCI 18  
MARSHALLTOWN CLOUDY 32 29 88 E16 30.07F FOG WCI 21  
CEDAR RAPIDS RAIN 32 28 85 E13 30.12F FOG WCI 22  

 
   
..NORTHERN ILLINOIS
 
 
 
CITY SKY/WX TMP DP RH WIND PRES REMARKS  
CHICAGO-OHARE CLOUDY 36 28 73 E8 30.25F WCI 30  
CHICAGO-MIDWAY CLOUDY 35 28 75 E8 30.27F WCI 29  
MOLINE CLOUDY 37 31 78 E15 30.14F WCI 28  
ROCKFORD MOCLDY 32 25 75 E10 30.23F WCI 24  
PEORIA MOCLDY 36 30 79 E8 30.17F WCI 30  

 
 
NOTE: "FAIR" INDICATES FEW OR NO CLOUDS BELOW 12,000 FEET WITH NO  
SIGNIFICANT WEATHER AND/OR OBSTRUCTIONS TO VISIBILITY. WIND  
SPEEDS ARE IN MILES-PER-HOUR.  
 
 
CLICK HERE TO GO TO PREVIOUS BULLETINS.

The Nexlab WI Page
The Nexlab IA Page
The Nexlab MN Page Main Text Page